Weather History for Casper, WY

Change the Weather History Date:

Tuesday, October 23, 2012

  Actual Average Record
Temperature  
Mean Temperature 44 °F 43 °F  
Max Temperature 53 °F 57 °F 81 °F (2003)
Min Temperature 35 °F 29 °F 11 °F (1984)
Degree Days  
Heating Degree Days 21 22  
Month to date heating degree days 423 427  
Since 1 July heating degree days 572 712  
Cooling Degree Days 0 0  
Month to date cooling degree days 0 0  
Year to date cooling degree days 697 422  
Moisture  
Dew Point 32 °F    
Average Humidity 66    
Maximum Humidity 92    
Minimum Humidity 40    
Precipitation  
Precipitation 0.03 in 0.04 in 0.25 in (1975)
Month to date precipitation 0.28 0.85  
Year to date precipitation 6.72 11.01  
Snow  
Snow 0.00 in 0.30 in - ()
Month to date snowfall 2.5 5.1  
Since 1 July snowfall 2.5 6.9  
Since 1 September snowfall 2.5 6.9  
Snow Depth 0.00 in    
Sea Level Pressure  
Sea Level Pressure 29.74 in    
Wind  
Wind Speed 12 mph (WSW)    
Max Wind Speed 18 mph    
Max Gust Speed 44 mph    
Visibility 10 miles    
Events Rain    
T = Trace of Precipitation, MM = Missing Value Source: NWS Daily Summary

Daily Weather History Graph

Daily Weather History Graph

Search for Another Location

Airport:

Trip Planner

Search our weather history database for the weather conditions in past years. The results will help you decide how hot, cold, wet, or windy it might be!

Date:

Astronomy

Oct. 23, 2012 Rise Set
Actual Time 7:29 AM MDT 6:09 PM MDT
Civil Twilight 7:00 AM MDT 6:38 PM MDT
Nautical Twilight 6:27 AM MDT 7:11 PM MDT
Astronomical Twilight 5:54 AM MDT 7:44 PM MDT
Moon 3:02 PM MDT (10/23) 1:16 AM MDT (10/23)
Length of Visible Light 11h 38m
Length of Day
10h 40m
Waxing Gibbous, 67% of the Moon is Illuminated
Oct 23
Waxing Gibbous
Oct 29
Full
Nov 6
Last Quarter
Nov 13
New
Nov 20
First Quarter

Hourly Weather History & Observations

Time (MDT) Temp. Windchill Dew Point Humidity Pressure Visibility Wind Dir Wind Speed Gust Speed Precip Events Conditions
12:53 AM 50.0 °F - 41.0 °F 71% 29.55 in 10.0 mi North - - 0.00 in   Mostly Cloudy
1:53 AM 46.9 °F - 41.0 °F 80% 29.57 in 10.0 mi SW 8.1 mph - 0.00 in   Mostly Cloudy
2:53 AM 53.1 °F - 37.9 °F 57% 29.53 in 10.0 mi WSW 17.3 mph 27.6 mph 0.00 in   Overcast
3:53 AM 46.9 °F - 37.9 °F 71% 29.55 in 10.0 mi WSW 8.1 mph - N/A   Scattered Clouds
4:53 AM 46.9 °F - 37.0 °F 68% 29.52 in 10.0 mi WSW 10.4 mph - N/A   Clear
5:53 AM 45.0 °F 38.2 °F 36.0 °F 71% 29.56 in 10.0 mi WSW 15.0 mph - N/A   Clear
6:53 AM 39.0 °F 33.4 °F 34.0 °F 82% 29.62 in 10.0 mi South 8.1 mph - N/A   Clear
7:53 AM 42.1 °F 36.1 °F 35.1 °F 76% 29.64 in 10.0 mi SW 10.4 mph - N/A   Mostly Cloudy
8:53 AM 46.4 °F 41.5 °F 37.4 °F 71% 29.75 in 10.0 mi West 10.4 mph - N/A   Mostly Cloudy
9:53 AM 48.0 °F - 37.0 °F 66% 29.69 in 10.0 mi WSW 10.4 mph - N/A   Mostly Cloudy
10:53 AM 46.4 °F 39.2 °F 35.6 °F 66% 29.79 in 10.0 mi West 18.4 mph 23.0 mph N/A   Overcast
11:53 AM 46.9 °F - 33.1 °F 59% 29.72 in 10.0 mi West 11.5 mph 21.9 mph N/A   Mostly Cloudy
12:53 PM 48.0 °F - 33.1 °F 56% 29.73 in 10.0 mi WNW 11.5 mph - N/A   Mostly Cloudy
1:53 PM 44.1 °F 37.1 °F 30.9 °F 60% 29.78 in 10.0 mi West 15.0 mph - 0.00 in Rain Light Rain
2:53 PM 45.0 °F 37.9 °F 28.9 °F 53% 29.77 in 10.0 mi WNW 16.1 mph 21.9 mph N/A   Overcast
3:53 PM 46.0 °F 40.6 °F 26.1 °F 46% 29.78 in 10.0 mi West 11.5 mph - N/A   Partly Cloudy
4:53 PM 46.0 °F 41.4 °F 24.1 °F 42% 29.80 in 10.0 mi WSW 9.2 mph - N/A   Mostly Cloudy
5:53 PM 45.0 °F 37.9 °F 21.9 °F 40% 29.85 in 10.0 mi West 16.1 mph 27.6 mph N/A   Overcast
6:53 PM 42.1 °F 36.6 °F 27.0 °F 55% 29.88 in 10.0 mi SW 9.2 mph - N/A   Overcast
7:53 PM 41.0 °F 36.4 °F 30.9 °F 67% 29.88 in 10.0 mi SW 6.9 mph - N/A   Overcast
8:53 PM 42.1 °F 34.9 °F 27.0 °F 55% 29.83 in 10.0 mi SSW 13.8 mph - N/A   Overcast
9:53 PM 42.1 °F 33.9 °F 25.0 °F 51% 29.85 in 10.0 mi SSW 17.3 mph - N/A   Overcast
10:53 PM 39.0 °F 29.3 °F 28.0 °F 65% 29.88 in 10.0 mi SW 19.6 mph 25.3 mph 0.00 in Rain Light Rain
11:31 PM 35.6 °F 25.9 °F 32.0 °F 87% 29.92 in 10.0 mi SSW 16.1 mph - 0.00 in Rain Light Rain
11:53 PM 35.1 °F 25.2 °F 33.1 °F 92% 29.91 in 8.0 mi SSW 16.1 mph 23.0 mph 0.01 in Rain Light Rain